Location: Fonthill Bishop
(51.0964°N, 2.0939°W)
Time: 09:38:20
(UTC+00:00)

Daily predictions for brighter satellites

Satellite Brightness Start Highest point End
(mag) Time Altitude Azimuth Time Altitude Azimuth Time Altitude Azimuth
H-2A R/B 2.2 19:02:33 10° SE 19:07:44 56° ENE 19:12:48 10° N
Cosmos 2360 Rocket 4.3 19:03:28 10° W 19:08:17 28° NW 19:13:06 10° NNE
STARLINK-1094 3.8 19:07:17 10° WNW 19:11:16 64° SSW 19:15:15 10° SE
Okean 1 Rocket 3.7 19:07:23 10° SSW 19:11:42 61° WNW 19:16:02 10° N
Cosmos 1745 Rocket 4.1 19:05:29 10° N 19:11:52 84° E 19:18:08 10° S
ERBS 2.2 19:08:29 10° SW 19:11:52 83° SSE 19:15:16 10° ENE
STARLINK-1073 3.8 19:08:32 10° WNW 19:12:41 72° N 19:16:50 10° E
Cosmos 2297 3.8 19:07:49 10° NNW 19:13:29 65° ENE 19:19:08 10° SE
Cosmos 1544 Rocket 4.2 19:09:31 10° SSE 19:13:30 35° E 19:17:31 10° NNE
USA 234 4.0 19:09:52 10° ENE 19:15:36 32° SE 19:21:19 10° SSW
HJ-1C 3.7 19:12:19 10° S 19:15:39 72° WSW 19:19:02 10° NNW
NOSS 0 Rocket 4.0 19:09:28 10° SSW 19:15:41 86° ESE 19:21:55 10° NNE
STARLINK-1117 3.9 19:11:49 10° WNW 19:15:47 61° SSW 19:19:45 10° SE
Meteor 2-5 Rocket 3.9 19:11:32 10° NNW 19:17:16 83° W 19:22:51 10° S
STARLINK-1121 3.7 19:13:31 10° WNW 19:17:41 74° N 19:21:50 10° E
STARLINK-1192 4.5 19:15:45 10° SSW 19:19:17 30° SE 19:22:51 10° E
ADEOS Rocket 3.5 19:13:02 10° NNE 19:20:02 78° WNW 19:26:16 10° SSW
STARLINK-1078 4.0 19:16:18 10° WNW 19:20:16 58° SSW 19:24:13 10° SE
Cosmos 2237 Rocket 2.2 19:16:06 10° SSW 19:21:43 81° ESE 19:27:24 10° NNE
Cosmos 1805 3.2 19:18:05 10° S 19:22:00 84° E 19:25:56 10° NNE
STARLINK-1106 3.7 19:18:29 10° WNW 19:22:39 76° N 19:26:39 11° E
Cosmos 1302 Rocket 4.2 19:18:07 10° NNW 19:23:21 59° ENE 19:28:34 10° SE
STARLINK-1244 4.4 19:20:27 10° SSW 19:24:03 32° SE 19:27:41 10° E
STARLINK-1201 3.6 19:21:16 10° SW 19:24:19 38° SSE 19:27:24 10° E
STARLINK-1108 4.0 19:20:50 10° WNW 19:24:47 55° SSW 19:28:43 10° SE
Cosmos 2278 Rocket 3.7 19:20:20 10° NW 19:25:33 39° WSW 19:30:45 10° S
CZ-2C R/B 3.8 19:22:58 10° NE 19:26:48 20° E 19:30:34 10° SE
STARLINK-1112 3.7 19:23:29 10° WNW 19:27:39 77° NNE 19:31:27 12° E
STARLINK-1138 4.3 19:25:02 10° SSW 19:28:43 34° SE 19:32:24 10° E
STARLINK-1066 4.4 19:26:17 10° W 19:29:08 31° SSW 19:31:58 10° SSE
Cosmos 1269 Rocket 4.3 19:24:13 10° S 19:29:16 47° ESE 19:34:21 10° NNE
STARLINK-1071 4.1 19:25:22 10° WNW 19:29:17 52° SSW 19:33:08 10° SE
STARLINK-1081 4.4 19:26:46 10° W 19:29:34 30° SSW 19:32:22 10° SSE
STARLINK-1209 2.9 19:26:46 10° SW 19:29:36 49° SSE 19:32:14 11° ENE
STARLINK-1070 4.4 19:27:13 10° W 19:30:01 30° SSW 19:32:48 10° SSE
STARLINK-1124 4.2 19:26:15 10° WNW 19:30:17 52° SSW 19:34:14 11° SE
STARLINK-1069 4.4 19:27:37 10° W 19:30:27 30° SSW 19:33:16 10° SSE
STARLINK-1228 2.9 19:27:45 10° SW 19:30:34 50° SSE 19:33:08 12° ENE
STARLINK-1085 4.4 19:28:04 10° W 19:30:54 30° SSW 19:33:43 10° SSE
STARLINK-1086 4.4 19:28:35 10° W 19:31:22 30° SW 19:34:08 10° SSE
STARLINK-1095 4.4 19:29:02 10° W 19:31:48 29° SW 19:34:34 10° SSE
STARLINK-1077 4.4 19:29:29 10° W 19:32:14 29° SW 19:35:00 10° SSE
Meteor 1-24 Rocket 3.8 19:27:01 10° NNW 19:32:38 83° W 19:38:01 10° S
STARLINK-1128 3.7 19:28:29 10° WNW 19:32:39 80° NNE 19:36:15 14° E
STARLINK-1075 4.4 19:29:56 10° W 19:32:42 29° SW 19:35:28 10° SSE
Cosmos 1553 Rocket 4.3 19:27:03 10° SSW 19:33:05 71° WNW 19:39:13 10° N
SeaSat 1 3.7 19:28:23 10° NNE 19:33:06 46° NW 19:37:48 10° WSW
STARLINK-1093 4.5 19:30:21 10° W 19:33:09 29° SW 19:35:56 10° SSE
STARLINK-1143 4.2 19:29:45 10° SSW 19:33:29 36° SE 19:37:08 10° E
STARLINK-1074 4.5 19:30:47 10° W 19:33:35 29° SW 19:36:23 10° SSE
STARLINK-1110 4.2 19:29:53 10° WNW 19:33:47 49° SSW 19:37:29 11° SE
SL-8 R/B 3.8 19:29:06 10° WSW 19:33:50 64° S 19:38:02 13° E
STARLINK-1087 4.5 19:31:17 10° W 19:34:03 28° SW 19:36:47 10° SSE
STARLINK-1088 4.5 19:31:45 10° W 19:34:30 28° SW 19:37:14 10° SSE
STARLINK-1115 4.5 19:32:10 10° W 19:34:57 28° SW 19:37:43 10° SSE
CZ-4 R/B 4.3 19:32:57 10° SW 19:35:38 18° W 19:38:21 10° NW
ARGOS 3.1 19:30:25 10° SSE 19:35:49 80° ENE 19:41:15 10° NNW
STARLINK-1113 3.6 19:33:28 10° WNW 19:37:38 82° NNE 19:41:02 15° ESE
MOS 1 4.3 19:34:29 10° SSE 19:40:09 89° WSW 19:45:51 10° NNW
Cosmos 1470 3.2 19:38:40 10° SSE 19:42:17 39° E 19:45:57 10° NNE
STARLINK-1119 3.6 19:38:26 10° WNW 19:42:36 84° NNE 19:45:48 17° ESE
STARLINK-1122 4.4 19:39:04 10° WNW 19:42:55 44° SSW 19:46:17 13° SE
STARLINK-1241 4.0 19:40:04 10° SW 19:43:51 41° SSE 19:47:06 13° E
STARLINK-1233 3.1 19:40:57 10° SW 19:44:01 52° SSE 19:46:21 16° E
STARLINK-1212 3.1 19:41:25 10° SW 19:44:28 52° SSE 19:46:46 16° E
STARLINK-1105 3.1 19:41:51 10° SW 19:44:55 52° SSE 19:47:13 16° E
STARLINK-1206 3.0 19:42:21 10° SW 19:45:23 52° SSE 19:47:38 16° E
STARLINK-1247 3.0 19:42:47 10° SW 19:45:50 53° SSE 19:48:04 17° E
ISS -3.8 19:42:31 10° W 19:45:53 87° N 19:48:11 19° E
STARLINK-1227 3.0 19:43:11 10° SW 19:46:15 53° SSE 19:48:30 17° E
ATLAS CENTAUR R/B 4.0 19:43:19 10° WNW 19:46:18 18° NNW 19:49:09 10° NNE
Cosmos 2315 Rocket 4.1 19:40:26 10° S 19:46:37 61° E 19:52:52 10° NNE
STARLINK-1218 3.0 19:43:40 10° SW 19:46:43 53° SSE 19:48:55 17° E
SL-08 RB Rocket 3.6 19:42:26 10° SSE 19:46:56 73° ENE 19:51:31 10° N
STARLINK-1226 3.0 19:44:08 10° SW 19:47:12 54° SSE 19:49:23 17° E
STARLINK-1126 4.4 19:43:43 10° WNW 19:47:32 41° SSW 19:50:44 14° SE
STARLINK-1254 3.0 19:44:32 10° SW 19:47:36 54° SSE 19:49:48 17° E
STARLINK-1114 3.6 19:43:26 10° WNW 19:47:36 87° NNE 19:50:36 18° ESE
SJ-6B 2.9 19:43:57 10° SSE 19:48:01 89° ENE 19:52:11 10° NNW
STARLINK-1215 3.0 19:45:01 10° SW 19:48:05 54° SSE 19:50:13 18° E
STARLINK-1239 3.9 19:44:36 10° SW 19:48:26 43° SSE 19:51:30 15° E
STARLINK-1231 3.0 19:45:28 10° SW 19:48:31 55° SSE 19:50:39 18° E
MetOp-A 4.2 19:43:22 10° SSE 19:48:37 61° ENE 19:53:55 10° N
Resurs 1-3 3.9 19:44:43 11° SE 19:48:52 50° ENE 19:53:07 10° N
STARLINK-1232 3.0 19:46:22 10° SW 19:49:25 56° SSE 19:51:32 18° E
STARLINK-1217 2.9 19:46:49 10° SW 19:49:53 56° SSE 19:51:58 18° E
Cosmos 1758 3.6 19:46:17 10° SSE 19:50:11 45° E 19:54:07 10° NNE
STARLINK-1208 3.0 19:47:14 10° SW 19:50:19 57° SSE 19:52:25 18° E
STARLINK-1229 2.9 19:47:42 10° SW 19:50:46 57° SSE 19:52:49 19° E
BREEZE-M DEB (TANK) 3.9 19:42:34 10° W 19:50:54 76° S 19:53:10 20° ESE
STARLINK-1271 2.9 19:48:10 10° SW 19:51:14 57° SSE 19:53:16 19° E
STARLINK-1270 2.9 19:48:37 10° SW 19:51:41 57° SSE 19:53:41 19° E
STARLINK-1154 2.9 19:49:03 10° SW 19:52:07 58° SSE 19:54:07 19° E
STARLINK-1130 (DARKSAT) 3.6 19:48:24 10° WNW 19:52:34 90° N 19:55:22 20° ESE
STARLINK-1240 3.8 19:49:09 10° SW 19:53:00 46° SSE 19:55:56 16° E
STARLINK-1197 2.9 19:49:57 10° SW 19:53:02 58° SSE 19:54:59 20° E
STARLINK-1189 2.9 19:50:25 10° SW 19:53:29 59° SSE 19:55:26 20° E
Cosmos 2369 Rocket 2.6 19:48:16 10° NNW 19:53:49 48° NE 19:57:50 18° ESE
STARLINK-1187 2.8 19:51:13 10° WSW 19:54:19 65° SSE 19:56:21 20° ENE
STARLINK-1188 2.9 19:51:18 10° SW 19:54:22 60° SSE 19:56:18 20° E
CZ-2C R/B 3.2 19:49:28 10° S 19:54:30 71° WSW 19:59:22 10° NNW
STARLINK-1198 2.9 19:51:32 10° SW 19:54:37 60° SSE 19:56:31 21° E
STARLINK-1235 2.8 19:51:53 10° WSW 19:55:01 71° SSE 19:57:05 19° ENE
NOSS 2-1 (C) 4.3 19:52:27 10° WSW 19:55:45 42° NW 19:59:33 10° NE
Resurs 01 Rocket 2.1 19:53:05 16° SE 19:56:15 43° ENE 20:00:26 10° N
STARLINK-1199 2.9 19:53:13 10° WSW 19:56:19 61° SSE 19:58:12 21° E
STARLINK-67 2.3 19:54:08 10° WSW 19:56:43 90° NNW 19:58:04 25° ENE
STARLINK-1191 2.9 19:53:41 10° WSW 19:56:47 62° SSE 19:58:39 22° E
FREGAT/IRIS 3.7 19:54:18 10° S 19:56:54 39° W 19:59:30 10° NNW
STARLINK-1210 2.9 19:54:07 10° WSW 19:57:13 62° SSE 19:59:04 22° E
STARLINK-1084 3.6 19:53:23 10° WNW 19:57:33 87° SSW 20:00:09 22° ESE
STARLINK-1216 3.8 19:53:44 10° SW 19:57:37 49° SSE 20:00:23 18° E
STARLINK-1221 2.9 19:54:35 10° WSW 19:57:42 63° SSE 19:59:33 22° E
STARLINK-1219 2.9 19:55:01 10° WSW 19:58:08 63° SSE 19:59:57 22° E
STARLINK-1222 2.8 19:55:28 10° WSW 19:58:35 63° SSE 20:00:22 23° E
Cosmos 1733 3.8 19:55:08 10° SSW 19:58:50 58° WNW 20:02:36 10° N
STARLINK-1211 2.8 19:55:55 10° WSW 19:59:02 64° SSE 20:00:49 23° E
STARLINK-1214 2.8 19:56:23 10° WSW 19:59:29 64° SSE 20:01:15 23° E
STARLINK-1245 2.8 19:56:53 10° WSW 19:59:58 64° SSE 20:01:40 24° E
NOSS 2-1 (D) 4.5 19:56:43 10° WSW 19:59:59 39° NW 20:03:46 10° NE
STARLINK-1238 2.8 19:57:17 10° WSW 20:00:24 65° SSE 20:02:07 24° E
IRIDIUM 114 4.4 19:55:24 10° N 20:00:33 55° E 20:05:35 10° SSE
Meteor 1-22 Rocket 4.3 19:55:47 10° SSW 20:01:04 73° WNW 20:06:24 10° N
STARLINK-1205 2.8 19:58:13 10° WSW 20:01:19 66° SSE 20:02:58 25° E
STARLINK-1204 2.8 19:58:39 10° WSW 20:01:45 66° SSE 20:03:23 25° E
STARLINK-1237 3.7 19:58:21 10° SW 20:02:15 52° SSE 20:04:52 20° E
STARLINK-1098 3.6 19:58:21 10° WNW 20:02:31 84° SSW 20:04:55 24° ESE
Meteor 2-15 Rocket 4.5 19:56:43 10° S 20:02:37 57° E 20:08:33 10° NNE
Cosmos 494 Rocket 4.3 19:58:16 10° SSW 20:03:25 72° WNW 20:08:39 10° NNE
SL-14 R/B 4.1 20:00:44 10° NNW 20:04:42 54° W 20:08:38 10° S
SPOT 3 Rocket 3.6 20:01:34 10° SSE 20:06:48 90° W 20:12:04 10° NNW
Cosmos 1726 3.2 20:06:30 25° E 20:06:48 25° E 20:09:57 10° NNE
Meteor 1-21 Rocket 4.2 20:01:15 10° N 20:06:49 65° ENE 20:11:31 14° SSE
STARLINK-1202 3.6 20:02:56 10° SW 20:06:52 55° SSE 20:09:18 21° E
STARLINK-1123 3.6 20:03:21 10° WNW 20:07:31 81° SSW 20:09:44 27° ESE
Cosmos 1709 Rocket 4.3 20:03:16 10° NNW 20:09:28 69° W 20:15:34 10° S
IRIDIUM 103 4.3 20:04:32 10° N 20:09:46 65° E 20:14:44 11° SSE
CZ-4C R/B 4.1 20:05:49 10° WNW 20:10:53 30° NNW 20:16:50 10° NE
Cosmos 2228 4.2 20:11:03 22° E 20:11:07 22° E 20:14:29 10° NE
STARLINK-1246 3.6 20:07:59 10° SW 20:11:59 59° SSE 20:14:18 23° E
MOS 1 Rocket 3.8 20:07:05 10° NNE 20:12:05 48° E 20:17:17 10° S
STARLINK-1097 3.6 20:08:19 10° WNW 20:12:28 77° SSW 20:14:29 29° ESE
Cosmos 2219 Rocket 4.5 20:08:22 10° W 20:13:04 26° NW 20:17:45 10° NNE
Meteor 2-15 4.3 20:07:58 10° S 20:14:02 82° E 20:20:08 10° NNE
Cosmos 292 Rocket 3.7 20:11:34 10° NNW 20:16:21 69° ENE 20:19:07 25° SE
STARLINK-1099 3.6 20:13:19 10° WNW 20:17:28 74° SSW 20:19:17 32° SE
Cosmos 1943 Rocket 2.1 20:13:38 10° NNW 20:19:12 84° ENE 20:22:52 22° SSE
Cosmos 1943 4.2 20:19:28 24° E 20:19:28 24° E 20:23:48 10° NE
STARLINK-1224 3.5 20:16:49 10° SW 20:20:48 64° SSE 20:22:45 28° E
NOSS 3-4 (A) 4.4 20:14:51 10° NW 20:21:16 45° NNE 20:25:57 21° E
NOSS 3-4 (C) 4.4 20:14:57 10° NW 20:21:22 45° NNE 20:26:03 21° E
Cosmos 2074 Rocket 4.0 20:15:43 10° N 20:21:58 67° ENE 20:26:45 18° SSE
STARLINK-1104 3.7 20:18:18 10° WNW 20:22:26 70° SSW 20:24:04 35° SE
STARLINK-1225 3.4 20:21:30 10° WSW 20:25:30 68° SSE 20:27:17 31° E
Cosmos 1328 4.4 20:22:22 10° N 20:26:07 37° ENE 20:26:45 34° E
USA 186 4.3 20:23:56 10° SSW 20:26:44 23° W 20:29:32 10° NW
STARLINK-1203 3.4 20:23:09 10° WSW 20:27:06 72° SSE 20:28:44 33° E
STARLINK-1144 3.7 20:23:16 10° WNW 20:27:23 67° SSW 20:28:50 38° SE
IRIDIUM 106 4.3 20:22:48 10° N 20:28:04 89° E 20:32:57 12° S
Cosmos 1437 2.9 20:25:41 10° N 20:28:32 47° ENE 20:28:32 47° ENE
Cosmos 1626 Rocket 4.5 20:25:03 10° NNW 20:29:18 48° W 20:33:30 10° SSW
STARLINK-1234 2.8 20:26:25 10° WSW 20:29:25 78° NNW 20:29:59 55° ENE
Cosmos 1626 4.1 20:26:21 10° NNW 20:29:34 28° W 20:32:46 10° SSW
STARLINK-1230 3.4 20:26:07 10° WSW 20:30:09 71° SSE 20:31:44 35° E
Cosmos 1953 2.2 20:29:29 21° S 20:32:03 69° E 20:36:02 10° NNE
STARLINK-1103 3.7 20:28:15 10° WNW 20:32:21 63° SSW 20:33:37 41° SE
Meteor 2-10 4.2 20:28:33 15° S 20:32:48 55° E 20:38:13 10° NNE
NOSS 3-3 (A) 4.4 20:27:56 10° S 20:33:10 35° ESE 20:38:59 10° NE
NOSS 3-3 (C) 4.4 20:28:03 10° S 20:33:17 34° ESE 20:39:05 10° NE
Cosmos 2084 Rocket 3.6 20:29:04 10° NW 20:33:33 76° SW 20:35:19 36° SSE
SPOT 1/Viking Rocket 4.2 20:32:06 30° ESE 20:33:48 39° ENE 20:38:37 10° N
STARLINK-1243 3.4 20:30:49 10° WSW 20:34:50 75° SSE 20:36:16 38° E
Spot 2 Rocket 3.6 20:33:07 32° SE 20:35:18 57° ENE 20:40:20 10° N
SL-16 R/B 2.4 20:29:50 10° SW 20:35:30 76° WNW 20:41:12 10° NNE
Cosmos 1602 Rocket 4.4 20:32:33 10° NNW 20:36:55 52° W 20:41:06 11° S
STARLINK-1101 3.8 20:33:15 10° WNW 20:37:20 60° SSW 20:38:25 43° SSE
STARLINK-1236 3.4 20:35:29 10° WSW 20:39:31 78° SSE 20:40:45 43° E
Aureole 2 Rocket 2.4 20:38:35 10° NNW 20:42:06 78° WSW 20:42:44 56° S
STARLINK-1102 3.9 20:38:13 10° WNW 20:42:18 57° SSW 20:43:11 45° SSE
IGS 5A 3.9 20:42:14 40° E 20:42:39 41° ENE 20:46:36 10° N
Aureole 3 3.7 20:38:37 10° SSW 20:42:40 80° WNW 20:47:56 10° N
DMSP B5D2-2 4.0 20:40:07 10° NNE 20:45:22 86° WNW 20:50:36 10° SSW
STARLINK-1111 3.9 20:43:12 10° WNW 20:47:15 53° SSW 20:47:58 46° S
H-2A R/B 4.2 20:43:07 10° SSW 20:47:28 25° W 20:51:45 10° NW
ERBS 3.8 20:45:21 10° W 20:48:28 33° NNW 20:49:56 23° NE
STARLINK-1269 3.4 20:44:53 10° WSW 20:48:55 84° SSE 20:49:49 53° ENE
Terra 3.0 20:49:37 26° ENE 20:49:58 26° ENE 20:53:55 10° N
CARTOSAT-1 4.5 20:50:52 32° ENE 20:50:54 32° ENE 20:54:46 10° N
Cosmos 2341 Rocket 4.5 20:46:00 10° N 20:52:03 44° ENE 20:53:51 36° ESE
STARLINK-1073 4.0 20:48:12 10° WNW 20:52:13 50° SSW 20:52:45 47° S
Cosmos 1703 3.1 20:48:53 10° N 20:52:50 71° ENE 20:53:09 67° ESE
STARLINK-1200 3.4 20:49:34 10° WSW 20:53:38 87° SSE 20:54:21 60° ENE
ATLAS 2AS CENTAUR R/B 3.1 20:46:35 10° NW 20:54:19 62° NE 20:57:42 33° ESE
Cosmos 1726 Rocket 3.7 20:55:09 50° E 20:55:09 50° E 20:59:18 10° NNE
Cosmos 1825 Rocket 3.6 20:51:56 10° NNW 20:56:23 79° W 20:57:49 42° S
Cosmos 1603 3.7 20:53:26 20° S 20:57:10 54° ESE 21:02:39 10° NE
STARLINK-1121 4.0 20:53:12 10° WNW 20:57:11 47° SSW 20:57:32 46° SSW
Meteor 1-16 Rocket 4.0 20:54:16 25° S 20:57:25 74° E 21:02:54 10° NNE
STARLINK-1192 3.4 20:54:14 10° WSW 20:58:18 90° NNE 20:58:49 67° ENE
USA 234 3.1 20:52:39 10° ENE 20:59:14 83° SSE 21:05:47 10° WSW
Cosmos 2327 Rocket 4.4 20:53:52 10° N 21:00:10 86° E 21:03:23 32° S
STARLINK-1201 3.4 20:57:13 10° W 21:00:05 61° WNW 21:00:05 61° WNW
STARLINK-1106 4.2 20:58:10 10° WNW 21:02:08 44° SSW 21:02:18 44° SSW
STARLINK-1244 3.4 20:59:02 10° WSW 21:03:06 87° NNW 21:03:26 74° ENE
MetOp-B 4.2 21:01:14 35° S 21:03:37 79° WSW 21:09:01 10° NNW
STARLINK-1209 4.2 21:01:33 10° W 21:03:28 35° WNW 21:03:28 35° WNW
STARLINK-1228 4.3 21:02:39 10° W 21:04:30 34° WNW 21:04:30 34° WNW
Cosmos 1758 Rocket 4.1 21:01:21 10° NNW 21:05:38 54° W 21:07:20 33° SSW
Cosmos 2237 Rocket 4.4 21:01:47 10° W 21:06:27 26° NW 21:11:09 10° NNE
STARLINK-1112 4.3 21:03:11 10° WNW 21:07:06 42° SSW 21:07:06 42° SSW
CZ-2C R/B 2.8 21:02:26 10° N 21:07:37 68° WNW 21:12:44 10° SSW
STARLINK-1138 3.4 21:03:44 10° WSW 21:07:48 84° NNW 21:07:58 81° NE
COSMOS 2455 3.7 21:03:39 10° NNW 21:09:18 40° NE 21:11:09 32° ENE
Meteor 1-11 4.2 21:04:31 10° N 21:10:23 81° ENE 21:12:06 48° SSE
Cosmos 1953 Rocket 3.6 21:07:34 10° NNW 21:12:02 80° W 21:12:43 62° SSW
STARLINK-1128 4.5 21:08:11 10° WNW 21:11:54 39° SW 21:11:54 39° SW
STARLINK-1143 3.5 21:08:32 10° WSW 21:12:34 82° NNW 21:12:34 82° NNW
Cosmos 2184 Rocket 4.4 21:06:29 10° NNW 21:12:44 60° W 21:17:03 20° SSW
Iridium 4 Rocket 4.5 21:09:01 10° NNE 21:11:53 26° NE 21:11:53 26° NE
Cosmos 1461 4.1 21:10:40 10° NNW 21:14:44 34° NE 21:15:09 33° NE
Cosmos 1295 Rocket 4.4 21:08:30 10° N 21:14:47 78° E 21:16:48 46° SSE
SL-8 R/B 4.0 21:11:29 10° W 21:16:00 51° SSW 21:16:00 51° SSW
Cosmos 2251 Rocket 3.6 21:12:47 10° SSW 21:18:09 79° WNW 21:23:34 10° NNE
Meteor 2-17 Rocket 4.4 21:12:26 10° NNW 21:18:36 82° W 21:21:00 40° S
Cosmos 2218 Rocket 4.4 21:14:54 10° N 21:20:47 44° ENE 21:21:25 42° E
Cosmos 1606 Rocket 3.6 21:20:19 58° SW 21:21:06 75° WNW 21:25:35 10° N
Cosmos 1656 Rocket 3.6 21:15:45 10° NNW 21:21:29 87° WSW 21:22:37 59° SSE
ISS -1.8 21:19:25 10° W 21:21:09 25° WSW 21:21:09 25° WSW
STARLINK-1241 3.8 21:18:52 10° W 21:22:24 65° WNW 21:22:24 65° WNW
ATLAS CENTAUR R/B 4.1 21:24:55 10° NNW 21:26:46 13° N 21:28:34 10° NNE
STARLINK-1239 4.0 21:23:28 10° W 21:26:49 58° WNW 21:26:49 58° WNW
BREEZE-M DEB (TANK) 4.4 21:26:07 10° WSW 21:26:52 14° WSW 21:26:52 14° WSW
ERS-1 Rocket 2.8 21:28:47 76° SE 21:29:08 82° ENE 21:34:12 10° NNW
USA 245 4.4 21:27:48 45° SSW 21:29:10 62° W 21:34:58 10° NNW
STARLINK-1240 4.2 21:28:05 10° W 21:31:15 52° WNW 21:31:15 52° WNW
Resurs 01 Rocket 3.5 21:30:38 17° SW 21:32:55 25° W 21:36:35 10° NW
Cosmos 2181 Rocket 4.2 21:33:10 48° E 21:33:10 48° E 21:39:02 10° NNE
Cosmos 2154 Rocket 4.3 21:27:22 10° NNW 21:33:40 64° W 21:36:21 35° SSW
SPOT 5 2.8 21:35:19 66° NNE 21:35:19 66° NNE 21:39:10 10° NNW
STARLINK-1216 4.4 21:32:44 10° W 21:35:43 46° W 21:35:43 46° W
Cosmos 1908 4.1 21:37:51 46° NNW 21:37:51 46° NNW 21:40:50 10° N
Cosmos 2369 Rocket 3.3 21:32:34 10° NW 21:37:44 36° WSW 21:39:38 29° SW
Cosmos 1726 4.0 21:40:56 25° W 21:41:56 29° WNW 21:45:16 10° N
Landsat 7 4.3 21:45:26 49° WSW 21:45:52 51° W 21:50:32 10° NNW
Cosmos 921 Rocket 3.8 21:43:06 10° NNW 21:46:09 45° N 21:46:09 45° N
Cosmos 967 Rocket 4.4 21:40:59 10° SW 21:47:27 87° SE 21:54:00 10° NE
Cosmos 2228 4.0 21:47:50 40° W 21:48:25 43° WNW 21:52:33 10° N
Cosmos 962 Rocket 4.5 21:43:30 10° NNW 21:49:43 75° W 21:50:56 58° SSW
Cosmos 1340 Rocket 4.3 21:57:44 33° N 21:57:44 33° N 22:00:05 10° N
SL-8 Rocket 3.8 21:49:41 10° N 21:56:02 86° E 21:56:35 75° SSE
Cosmos 2058 4.5 21:56:11 10° N 21:58:26 30° N 21:58:26 30° N
Cosmos 2058 Rocket 3.8 22:01:24 53° NW 22:01:24 53° NW 22:05:18 10° N
CZ-4C R/B 4.1 21:55:43 10° NW 22:01:19 31° NNE 22:06:33 14° ENE
Cosmos 1943 Rocket 4.2 21:58:32 10° WNW 22:02:15 19° W 22:04:24 15° SW
Cosmos 864 Rocket 4.3 21:56:33 10° N 22:02:51 76° E 22:02:57 76° E
Cosmos 1943 3.4 22:01:06 44° SW 22:02:54 69° WNW 22:08:37 10° NNE
Cosmos 2366 rocket 3.8 21:57:03 10° N 22:03:14 79° E 22:03:18 79° E
Mayak 1.1 22:05:57 10° NNE 22:06:55 16° NNE 22:06:55 16° NNE
NOSS 3-4 (A) 3.8 22:05:47 10° NW 22:12:39 70° SW 22:13:24 65° SSW
NOSS 3-4 (C) 3.8 22:05:52 10° NW 22:12:45 70° SW 22:13:29 66° SSW
Cosmos 1959 Rocket 4.4 22:13:24 10° NNW 22:19:48 80° W 22:19:57 79° WSW
NOSS 3-3 (A) 4.3 22:17:39 10° WSW 22:23:40 65° NW 22:30:33 10° NE
NOSS 3-3 (C) 4.3 22:17:45 10° WSW 22:23:45 66° NW 22:30:39 10° NE
Cosmos 1697 Rocket 4.0 22:20:56 10° NNW 22:25:53 29° NE 22:26:03 29° NE
SL-08 R/B 4.5 22:20:36 10° N 22:26:15 74° NNE 22:26:15 74° NNE
Terra 2.8 22:28:29 42° WNW 22:28:29 42° WNW 22:32:08 10° NNW
USA 234 3.7 22:35:43 10° ENE 22:42:06 58° NNW 22:48:29 10° W
Cosmos 407 Rocket 4.4 22:44:53 46° NNW 22:44:53 46° NNW 22:48:53 10° NNE
ATLAS 2AS CENTAUR R/B 3.4 22:38:01 10° NW 22:45:08 45° WSW 22:45:08 45° WSW
Cosmos 1821 Rocket 4.2 22:41:21 10° N 22:46:52 64° NNE 22:46:52 64° NNE
Cosmos 1980 Rocket 3.7 22:46:03 10° NNW 22:50:46 27° NE 22:50:54 27° NE
COSMOS 2455 3.5 22:49:37 10° NW 22:54:18 49° WNW 22:54:18 49° WNW
ATLAS CENTAUR R/B 4.0 23:03:56 10° NNW 23:05:26 17° N 23:05:26 17° N
Cosmos 1934 Rocket 4.5 23:02:50 10° N 23:08:00 56° NNE 23:08:00 56° NNE
ATLAS 5 CENTAUR R/B 4.2 23:39:11 17° NE 23:39:11 17° NE 23:40:20 10° NE
Mayak 1.4 23:41:58 10° N 23:43:29 18° NNW 23:43:29 18° NNW
CZ-4C R/B 3.2 23:44:27 10° NW 23:51:12 59° NE 23:51:43 58° NE
